Location: Carnetin
(48.9010°N, 2.7059°E)
Time: 19:39:50
(UTC+00:00)

Cosmos 1825 - Pass Details

Date: 06 June 2022
Orbit: 496 x 499 km, 82.5° (Epoch: 24 June)

Event Time Altitude Azimuth Distance (km) Brightness Sun altitude
Exits shadow 01:12:32 - 131° (SE) 2,217 5.2 -16.0°
Reaches altitude 10° 01:14:40 10° 107° (ESE) 1,699 4.9 -15.9°
Maximum altitude 01:16:08 12° 84° (E) 1,576 5.0 -15.8°
Drops below altitude 10° 01:17:37 10° 60° (ENE) 1,706 5.6 -15.7°
Sets 01:20:53 0° 29° (NNE) 2,598 7.6 -15.5°
